Torna al catalogo

SL-8 DEB

AttivoPO
NORAD 21257·DEBRIS·🇷🇺 Russia

Lanciato Feb 5, 1991 da Plesetsk Cosmodrome

Loading…

Prossimi Passaggi (prossime 24 ore)

TLE

AggiornatoSource: Space-Track

Epoca: Sep 14, 2026, 03:38 UTC

1 21257U 91007D   26257.15185894  .00000166  00000-0  14919-3 0  9997
2 21257  82.9155 245.3956 0031847 328.6296 162.4337 13.78205770786403

Traccia SL-8 DEB in tempo reale con AllMySat

Download on the App Store